When you browse on this site, cookies collect data to enhance your experience and personalize the content and advertising you see.
Visit our Privacy Policy to learn more. By continuing to use the site, you agree to this use of cookies and data.
  • In Hungary
  • List of Countries
  • For 7 days
  • Water Temperature
  • Satellite Maps
  • Weather Map
  • News
  • Weather Widgets
  • user-avatar
    Login

    Hourly Weather Udalcovo

    Today, 24 May, Friday

    Time Temperature Precipitation Wind Pressure Humidity
    00:00 +6°C° 0 mm 2 mps 740 mmHg 89%
    01:00 +5°C° 0 mm 2 mps 740 mmHg 90%
    02:00 +5°C° 0 mm 2 mps 741 mmHg 90%
    03:00 +5°C° 0 mm 2 mps 741 mmHg 85%
    04:00 +5°C° 0 mm 2 mps 741 mmHg 80%
    05:00 +4°C° 0 mm 3 mps 742 mmHg 75%
    06:00 +7°C° 0 mm 3 mps 742 mmHg 69%
    07:00 +8°C° 0 mm 3 mps 742 mmHg 62%
    08:00 +10°C° 0 mm 3 mps 742 mmHg 56%
    09:00 +11°C° 0 mm 3 mps 742 mmHg 53%
    10:00 +12°C° 0 mm 3 mps 742 mmHg 49%
    11:00 +14°C° 0 mm 3 mps 742 mmHg 46%
    12:00 +16°C° 0 mm 3 mps 742 mmHg 45%
    13:00 +16°C° 0 mm 3 mps 742 mmHg 45%
    14:00 +17°C° 0 mm 3 mps 742 mmHg 44%
    15:00 +17°C° 0 mm 3 mps 741 mmHg 46%
    16:00 +17°C° 0 mm 3 mps 741 mmHg 49%
    17:00 +17°C° 0 mm 3 mps 741 mmHg 51%
    18:00 +14°C° 0 mm 3 mps 740 mmHg 60%
    19:00 +14°C° 0 mm 2 mps 740 mmHg 68%
    20:00 +12°C° 0 mm 2 mps 740 mmHg 76%
    21:00 +12°C° 0 mm 2 mps 740 mmHg 77%
    22:00 +11°C° 0 mm 3 mps 740 mmHg 77%
    23:00 +11°C° 0 mm 3 mps 740 mmHg 78%

    Tomorrow, 25 May, Saturday

    Time Temperature Precipitation Wind Pressure Humidity
    00:00 +11°C° 0 mm 3 mps 740 mmHg 83%
    01:00 +10°C° 0 mm 3 mps 740 mmHg 87%
    02:00 +10°C° 0 mm 3 mps 739 mmHg 92%
    03:00 +10°C° 0 mm 3 mps 739 mmHg 92%
    04:00 +10°C° 0 mm 3 mps 739 mmHg 91%
    05:00 +10°C° 0 mm 3 mps 738 mmHg 91%
    06:00 +11°C° 0 mm 3 mps 738 mmHg 89%
    07:00 +12°C° 0 mm 3 mps 738 mmHg 87%
    08:00 +13°C° 0 mm 3 mps 737 mmHg 84%
    09:00 +13°C° 0.1 mm 3 mps 737 mmHg 85%
    10:00 +14°C° 0.1 mm 3 mps 737 mmHg 85%
    11:00 +14°C° 0.1 mm 3 mps 737 mmHg 85%
    12:00 +16°C° 0.2 mm 3 mps 736 mmHg 84%
    13:00 +17°C° 0.2 mm 4 mps 736 mmHg 83%
    14:00 +17°C° 0.2 mm 4 mps 735 mmHg 82%
    15:00 +17°C° 0.9 mm 3 mps 735 mmHg 86%
    16:00 +16°C° 0.9 mm 3 mps 734 mmHg 90%
    17:00 +16°C° 0.9 mm 3 mps 733 mmHg 94%
    18:00 +15°C° 1 mm 2 mps 733 mmHg 95%
    19:00 +15°C° 1 mm 2 mps 733 mmHg 96%
    20:00 +15°C° 1 mm 2 mps 732 mmHg 96%
    21:00 +14°C° 0.1 mm 2 mps 732 mmHg 96%
    22:00 +13°C° 0.1 mm 2 mps 732 mmHg 96%
    23:00 +13°C° 0.1 mm 2 mps 732 mmHg 97%

    Day after tomorrow, 26 May, Sunday

    Time Temperature Precipitation Wind Pressure Humidity
    00:00 +12°C° 0 mm 2 mps 733 mmHg 97%
    01:00 +10°C° 0 mm 2 mps 733 mmHg 97%
    02:00 +10°C° 0 mm 2 mps 733 mmHg 97%
    03:00 +10°C° 0 mm 2 mps 733 mmHg 96%
    04:00 +10°C° 0 mm 2 mps 733 mmHg 95%
    05:00 +10°C° 0 mm 3 mps 734 mmHg 94%
    06:00 +11°C° 0 mm 3 mps 734 mmHg 87%
    07:00 +12°C° 0 mm 3 mps 734 mmHg 80%
    08:00 +13°C° 0 mm 3 mps 734 mmHg 73%
    09:00 +13°C° 0 mm 3 mps 735 mmHg 70%
    10:00 +13°C° 0 mm 3 mps 735 mmHg 68%
    11:00 +14°C° 0 mm 3 mps 735 mmHg 65%
    12:00 +16°C° 0 mm 3 mps 735 mmHg 61%
    13:00 +16°C° 0 mm 3 mps 734 mmHg 58%
    14:00 +17°C° 0 mm 3 mps 734 mmHg 55%
    15:00 +18°C° 0 mm 3 mps 734 mmHg 54%
    16:00 +18°C° 0 mm 2 mps 734 mmHg 54%
    17:00 +18°C° 0 mm 2 mps 734 mmHg 53%
    18:00 +16°C° 0 mm 2 mps 734 mmHg 61%
    19:00 +15°C° 0 mm 2 mps 733 mmHg 69%
    20:00 +13°C° 0 mm 2 mps 733 mmHg 77%
    21:00 +13°C° 0 mm 2 mps 733 mmHg 80%
    22:00 +12°C° 0 mm 2 mps 733 mmHg 84%
    23:00 +12°C° 0 mm 2 mps 733 mmHg 87%

    27 May, Monday

    Time Temperature Precipitation Wind Pressure Humidity
    00:00 +11°C° 0.1 mm 3 mps 733 mmHg 88%
    01:00 +11°C° 0.1 mm 4 mps 733 mmHg 88%
    02:00 +11°C° 0.1 mm 4 mps 733 mmHg 88%
    03:00 +10°C° 0.3 mm 4 mps 733 mmHg 89%
    04:00 +8°C° 0.3 mm 4 mps 733 mmHg 90%
    05:00 +8°C° 0.3 mm 4 mps 734 mmHg 91%
    06:00 +8°C° 0 mm 4 mps 734 mmHg 85%
    07:00 +9°C° 0 mm 5 mps 735 mmHg 79%
    08:00 +9°C° 0 mm 5 mps 735 mmHg 73%
    09:00 +10°C° 0 mm 5 mps 736 mmHg 67%
    10:00 +12°C° 0 mm 5 mps 736 mmHg 61%
    11:00 +14°C° 0 mm 5 mps 736 mmHg 55%
    12:00 +13°C° 0 mm 5 mps 737 mmHg 57%
    13:00 +13°C° 0 mm 5 mps 737 mmHg 60%
    14:00 +12°C° 0 mm 5 mps 737 mmHg 62%
    15:00 +13°C° 0 mm 4 mps 738 mmHg 61%
    16:00 +14°C° 0 mm 4 mps 738 mmHg 60%
    17:00 +14°C° 0 mm 3 mps 738 mmHg 58%
    18:00 +13°C° 0 mm 3 mps 738 mmHg 64%
    19:00 +13°C° 0 mm 2 mps 738 mmHg 71%
    20:00 +12°C° 0 mm 2 mps 738 mmHg 77%
    21:00 +12°C° 0.2 mm 2 mps 738 mmHg 80%
    22:00 +13°C° 0.2 mm 2 mps 738 mmHg 83%
    23:00 +13°C° 0.2 mm 2 mps 738 mmHg 86%

    28 May, Tuesday

    Time Temperature Precipitation Wind Pressure Humidity
    00:00 +12°C° 0.2 mm 3 mps 738 mmHg 88%
    01:00 +12°C° 0.2 mm 3 mps 738 mmHg 89%
    02:00 +13°C° 0.2 mm 4 mps 738 mmHg 90%
    03:00 +13°C° 0.5 mm 4 mps 738 mmHg 91%
    04:00 +13°C° 0.5 mm 4 mps 738 mmHg 92%
    05:00 +13°C° 0.5 mm 4 mps 738 mmHg 93%
    06:00 +14°C° 0.1 mm 3 mps 738 mmHg 91%
    07:00 +16°C° 0.1 mm 3 mps 738 mmHg 88%
    08:00 +17°C° 0.1 mm 3 mps 739 mmHg 85%
    09:00 +18°C° 0.5 mm 3 mps 739 mmHg 83%
    10:00 +19°C° 0.5 mm 3 mps 739 mmHg 80%
    11:00 +20°C° 0.5 mm 4 mps 739 mmHg 78%
    12:00 +21°C° 0.5 mm 3 mps 739 mmHg 75%
    13:00 +22°C° 0.5 mm 3 mps 739 mmHg 71%
    14:00 +22°C° 0.5 mm 3 mps 739 mmHg 68%
    15:00 +23°C° 0.5 mm 2 mps 739 mmHg 73%
    16:00 +21°C° 0.5 mm 2 mps 740 mmHg 78%
    17:00 +22°C° 0.5 mm 1 mps 740 mmHg 84%
    18:00 +20°C° 0.7 mm 1 mps 740 mmHg 88%
    19:00 +19°C° 0.7 mm 1 mps 740 mmHg 92%
    20:00 +18°C° 0.7 mm 1 mps 740 mmHg 96%
    21:00 +18°C° 2.3 mm 1 mps 740 mmHg 97%
    22:00 +18°C° 2.3 mm 1 mps 740 mmHg 98%
    23:00 +16°C° 2.3 mm 1 mps 740 mmHg 98%

    29 May, Wednesday

    Time Temperature Precipitation Wind Pressure Humidity
    00:00 +16°C° 0.6 mm 1 mps 740 mmHg 98%
    01:00 +18°C° 0.6 mm 1 mps 740 mmHg 98%
    02:00 +18°C° 0.6 mm 1 mps 740 mmHg 98%
    03:00 +18°C° 0 mm 1 mps 740 mmHg 98%
    04:00 +18°C° 0 mm 1 mps 740 mmHg 98%
    05:00 +17°C° 0 mm 2 mps 740 mmHg 97%
    06:00 +18°C° 0 mm 2 mps 740 mmHg 95%
    07:00 +19°C° 0 mm 2 mps 740 mmHg 92%
    08:00 +20°C° 0 mm 2 mps 740 mmHg 90%
    09:00 +22°C° 0 mm 3 mps 740 mmHg 79%
    10:00 +25°C° 0 mm 4 mps 740 mmHg 68%
    11:00 +27°C° 0 mm 4 mps 739 mmHg 58%
    12:00 +27°C° 0 mm 5 mps 739 mmHg 55%
    13:00 +28°C° 0 mm 5 mps 739 mmHg 52%
    14:00 +28°C° 0 mm 6 mps 738 mmHg 50%
    15:00 +28°C° 0.1 mm 5 mps 738 mmHg 54%
    16:00 +27°C° 0.1 mm 5 mps 738 mmHg 58%
    17:00 +27°C° 0.1 mm 4 mps 737 mmHg 62%
    18:00 +25°C° 0.3 mm 4 mps 737 mmHg 69%
    19:00 +23°C° 0.3 mm 4 mps 738 mmHg 76%
    20:00 +21°C° 0.3 mm 3 mps 738 mmHg 83%
    21:00 +20°C° 0.6 mm 3 mps 738 mmHg 86%
    22:00 +20°C° 0.6 mm 3 mps 738 mmHg 89%
    23:00 +19°C° 0.6 mm 3 mps 738 mmHg 92%
    Show more